Location: ActonStarParty
(42.4766°N, 71.4538°W)
Time: 09:13:12
(UTC-04:00)

Daily predictions for brighter satellites

Satellite Brightness Start Highest point End
(mag) Time Altitude Azimuth Time Altitude Azimuth Time Altitude Azimuth
Cosmos 1709 Rocket 4.1 19:00:25 10° S 19:06:41 66° E 19:13:01 10° NNE
Cosmos 1726 Rocket 3.9 19:04:46 10° SSE 19:08:54 44° E 19:13:03 10° NNE
Meteor 2-5 Rocket 4.2 19:03:59 10° N 19:09:34 43° ENE 19:15:01 10° SE
USA 229 DEB 3.9 19:03:27 10° NW 19:10:40 82° NE 19:18:00 10° SE
USA 229 3.9 19:03:33 10° NW 19:10:45 81° NE 19:18:05 10° SE
Cosmos 482 Debris 4.0 19:07:06 10° NW 19:11:50 88° SW 19:14:36 10° SE
H-2A R/B 3.4 19:11:15 10° SE 19:14:38 34° ENE 19:18:03 10° N
Cosmos 468 Rocket 4.0 19:10:13 10° SSW 19:15:24 79° ESE 19:20:42 10° NNE
BREEZE M DEB (TANK) 3.9 19:05:22 10° WNW 19:15:33 61° NNE 19:18:53 10° E
Cosmos 841 Rocket 4.1 19:11:24 10° SSE 19:15:58 33° E 19:20:32 10° NE
Cosmos 1937 Rocket 3.6 19:11:45 10° NNW 19:17:03 64° ENE 19:22:16 10° SSE
Cosmos 2298 Rocket 4.1 19:12:45 10° NNW 19:18:05 67° ENE 19:23:22 10° SSE
COSMOS 2406 4.1 19:20:15 10° SSE 19:24:49 26° ESE 19:29:27 10° NE
NOSS 3-1 (C) 4.2 19:17:28 10° NNW 19:24:53 59° NE 19:33:07 10° SE
FENGYUN 3A 3.7 19:21:43 10° SSE 19:27:04 88° WSW 19:32:28 10° NNW
Cosmos 1656 Rocket 4.0 19:22:13 10° NNW 19:27:42 49° ENE 19:33:05 10° SE
Cosmos 1766 4.4 19:25:24 10° SE 19:28:31 23° E 19:31:38 10° NE
Cosmos 304 Rocket 4.2 19:24:57 10° S 19:29:22 38° ESE 19:33:49 10° NE
FengYun 1-2 T 4.3 19:24:32 10° SSE 19:30:03 63° ENE 19:35:34 10° N
Resurs 01 Rocket 2.7 19:27:05 10° ESE 19:30:43 26° ENE 19:34:22 10° NNE
Cosmos 2084 3.5 19:27:01 10° SSW 19:30:58 49° ESE 19:34:45 10° NE
Cosmos 2369 Rocket 3.6 19:26:10 10° NW 19:31:27 42° WSW 19:36:40 10° S
Cosmos 1707 2.7 19:28:56 10° N 19:32:53 75° E 19:36:48 10° SSE
Cosmos 2184 Rocket 4.3 19:27:48 10° SSE 19:33:41 44° E 19:39:39 10° NNE
GP-B 4.4 19:33:05 10° NE 19:36:23 20° E 19:38:49 14° ESE
Cosmos 1763 Rocket 3.4 19:31:56 10° S 19:36:59 70° ESE 19:42:08 10° NNE
HJ-1C 3.5 19:33:47 10° SSE 19:37:01 50° ENE 19:40:18 10° N
Cosmos 540 Rocket 4.3 19:36:29 10° SSE 19:40:46 28° E 19:45:03 10° NE
Cosmos 2228 3.0 19:37:25 10° S 19:41:45 68° E 19:46:05 10° NNE
USA 186 3.3 19:45:15 14° NE 19:45:15 14° NE 19:45:58 10° NNE
Thor Agena Rocket 3.8 19:41:36 10° N 19:46:52 75° WNW 19:52:02 10° SSW
ALOS 3.2 19:42:22 10° S 19:46:54 51° W 19:51:28 10° NNW
Cosmos 1606 Rocket 4.4 19:43:39 10° SSW 19:47:55 54° W 19:52:11 10° N
Cosmos 1953 Rocket 4.1 19:44:22 10° NNW 19:48:39 62° W 19:52:54 10° S
Cosmos 2058 Rocket 3.0 19:44:45 10° S 19:49:06 89° ESE 19:53:30 10° N
In-Cosmos 22 4.5 19:45:42 10° N 19:51:11 48° ENE 19:56:44 10° SSE
Cosmos 1340 Rocket 4.0 19:48:30 10° NNW 19:52:25 46° W 19:56:19 10° SSW
Cosmos 1378 3.7 19:52:25 10° NNW 19:56:10 60° W 19:59:53 10° S
Cosmos 2327 Rocket 4.4 19:50:25 10° S 19:56:24 60° E 20:02:23 10° NNE
FREGAT/IRIS 4.2 19:57:39 10° SSW 20:00:30 37° W 20:03:21 10° NNW
Cosmos 1544 3.2 19:59:00 10° SSE 20:02:27 46° E 20:05:57 10° NNE
Spot 2 Rocket 3.7 19:58:46 16° SE 20:02:36 49° ENE 20:07:27 10° N
Cosmos 1805 3.8 20:03:56 28° SE 20:05:04 34° E 20:08:38 10° NNE
CZ-2D R/B 3.1 20:07:15 15° SSE 20:10:24 82° ENE 20:14:13 10° N
Cosmos 1356 Rocket 3.7 20:10:37 10° NNW 20:14:53 70° W 20:19:11 10° S
GEOS 3 Rocket 4.1 20:12:40 10° NE 20:17:38 37° ESE 20:22:34 10° S
Meteor 1-24 Rocket 3.9 20:13:32 10° NNW 20:19:33 82° W 20:25:21 10° S
SJ-6B 4.3 20:19:24 10° SSW 20:23:09 37° W 20:26:51 10° NNW
Cosmos 1125 Rocket 3.5 20:19:55 10° NNW 20:25:12 69° ENE 20:27:33 33° SE
Cosmos 1953 4.1 20:27:42 20° NE 20:27:42 20° NE 20:29:10 10° NNE
Cosmos 1356 3.8 20:24:52 10° N 20:27:48 50° NE 20:27:48 50° NE
Helios 1A 4.4 20:30:47 23° NE 20:30:47 23° NE 20:33:10 10° N
ERS-1 Rocket 4.4 20:31:41 22° NE 20:31:41 22° NE 20:34:48 10° NNE
Envisat 2.9 20:31:44 25° SSE 20:34:45 88° ENE 20:39:51 10° NNW
Cosmos 2154 Rocket 3.9 20:32:19 10° S 20:38:29 76° E 20:44:45 10° N
H-2A R/B 4.1 20:40:08 13° NE 20:40:08 13° NE 20:41:19 10° NNE
Cosmos 372 Rocket 3.9 20:33:59 10° NNW 20:39:16 81° ENE 20:40:55 45° SSE
Cosmos 1697 Rocket 4.2 20:39:45 10° N 20:43:49 21° NE 20:43:49 21° NE
Cosmos 1980 Rocket 4.2 20:41:17 10° NNE 20:43:59 14° NE 20:43:59 14° NE
Cosmos 2341 Rocket 3.9 20:44:08 28° SSE 20:47:27 63° E 20:53:36 10° NNE
Resurs 1-3 4.3 20:45:39 23° SSW 20:48:08 52° W 20:52:26 10° NNW
MOS 1-B Rocket 4.2 20:49:10 15° S 20:54:25 66° WSW 21:00:07 10° NNW
ATLAS 2AS CENTAUR R/B 3.6 20:49:32 10° NNW 20:57:05 41° NE 20:58:53 36° ENE
ATLAS CENTAUR R/B 4.1 20:54:56 10° NW 21:05:14 36° WSW 21:07:51 23° SSW
Resurs 01 Rocket 3.3 21:04:18 16° SSW 21:07:04 31° W 21:11:01 10° NW
Cosmos 1758 4.5 21:09:02 40° NNW 21:09:02 40° NNW 21:11:48 10° N
COSMOS 2406 4.1 21:03:19 10° SW 21:08:48 48° WNW 21:14:22 10° NNE
BREEZE-M DEB (TANK) 2.9 21:01:37 10° WSW 21:10:17 86° W 21:10:17 86° W
Nadezhda 3 Rocket 4.3 21:04:23 10° NNW 21:10:38 63° W 21:14:02 27° SSW
Meteor 1-21 Rocket 4.2 21:07:13 10° NNW 21:13:00 80° W 21:13:44 67° SSW
NOAA 11 4.3 21:13:48 62° NNE 21:13:48 62° NNE 21:18:33 10° N
Centaur D AC-29 3.9 21:12:03 10° SW 21:14:23 13° SSW 21:14:23 13° SSW
FALCON 9 R/B 3.1 21:11:07 10° WSW 21:14:19 38° SSW 21:14:19 38° SSW
Cosmos 1939 Rocket 4.2 21:17:10 37° WNW 21:17:10 37° WNW 21:20:09 10° NNW
ARGOS 4.1 21:19:52 37° NNE 21:19:52 37° NNE 21:23:28 10° N
Cosmos 2369 4.0 21:19:54 10° NNW 21:24:35 58° N 21:24:35 58° N
Meteor 2-21 4.4 21:32:22 79° NNW 21:32:22 79° NNW 21:38:10 10° N
Terra 4.5 21:41:35 10° NNE 21:41:35 10° NNE 21:41:40 10° NNE
SL-8 Rocket 4.2 21:47:00 64° NNW 21:47:00 64° NNW 21:52:22 10° N
BREEZE-M DEB (TANK) 4.1 21:31:21 10° WNW 21:46:16 52° N 21:46:49 51° NNE
Cosmos 2322 Rocket 4.4 22:12:24 10° N 22:13:58 16° NNE 22:13:58 16° NNE
H-2A R/B 4.1 22:20:47 21° NNW 22:20:47 21° NNW 22:22:29 10° NNW
Cosmos 1697 Rocket 4.4 22:22:50 10° NNW 22:25:33 29° NW 22:25:33 29° NW
Cosmos 1980 Rocket 4.0 22:23:25 10° NNW 22:25:45 26° NNW 22:25:45 26° NNW
ATLAS 2AS CENTAUR R/B 3.8 22:40:42 10° NW 22:46:19 44° WNW 22:46:19 44° WNW
